Vertical_Velocity
-0 -2 -2 -3 -3 -1 -2 0 -1 -1 0 -1 1 -1 -3 -0 -0 -0 -1 -4 -4 -2 4 2 -2 2 -5 1 19 0 2 3 1 1 -2 0 -1 -2 -3 2 -0 -1 -1 0 -0 -2 2
-2 -3 -2 -2 -3 -2 -3 -2 -2 -1 -1 -0 2 -1 0 -4 -5 -3 -3 1 -3 0 2 1 -3 -1 -1 15 -2 -5 2 3 2 0 -2 -4 -1 -1 -3 1 -0 0 0 -0 -1 -1 2
1 -2 -2 -2 -2 -1 1 -0 -1 1 -1 1 2 1 -1 3 2 -2 -1 -3 -4 -1 -4 -0 -1 -1 -1 32 1 1 -2 1 2 1 1 -2 0 -0 -3 2 -1 -0 1 -1 -2 -0 0
1 -1 0 -1 -1 2 -1 -1 0 -0 -2 -1 2 2 -5 -2 -3 2 -0 -4 -2 1 -2 -2 -2 -1 13 -3 -1 1 -3 4 -1 5 -2 -2 -1 -1 -2 -1 2 -2 -1 3 -8 1 1
2 -4 -0 3 -2 1 -1 0 -0 -3 -2 -2 0 -0 -2 -3 -4 -0 1 -2 2 1 1 -4 2 -7 21 8 2 -2 0 4 2 2 -6 -1 3 -3 -1 2 -2 2 1 -0 -4 1 1
-4 0 -1 -1 -1 -3 0 -2 0 -2 1 -1 -1 -3 -2 2 -0 -2 3 -4 -1 -2 0 -3 -1 -4 9 3 -8 -1 -2 3 3 -1 -8 3 -2 -5 2 -3 9 3 -6 -2 4 -4 -1
-1 -1 -1 -1 -2 -1 -0 -1 -2 -0 -0 -3 0 1 -6 -1 -1 -1 7 -6 -8 -3 6 1 4 0 8 1 -4 -4 3 -0 1 -1 -3 -4 -13 11 10 2 -3 -3 -4 -0 5 1 -4
0 -0 2 -0 -1 -2 -1 0 -2 -3 -2 -3 -3 -0 -4 -0 -2 -2 -2 -1 -5 -8 10 -4 5 17 0 -10 4 1 7 -1 -0 4 -2 -4 -3 20 -6 -1 -2 -0 -4 6 4 3 -6
0 1 4 1 -1 1 -2 1 -1 -1 -4 -2 1 4 -5 -0 -6 -2 -6 1 0 -9 -10 25 2 3 3 -4 5 15 -3 -1 6 -3 2 -2 11 -1 -4 -1 1 1 -5 6 -0 -3 -5
1 2 1 -1 -1 -4 -4 -3 4 -5 1 -1 -4 8 -5 2 -3 -6 -3 -1 2 -5 -7 10 -7 -8 -6 0 2 5 3 -1 -2 8 2 -9 8 1 0 -1 -0 -1 -5 -0 -3 -1 -3
-1 1 -1 2 -3 -0 -1 -5 2 -4 0 1 -6 5 -2 2 -4 -3 -1 -5 -3 8 -13 -0 0 0 4 1 7 2 2 -7 10 8 1 14 8 -0 -3 17 -3 11 -2 2 -5 -6 -6
-1 -0 0 2 2 2 -2 -0 -2 1 3 -1 -5 -2 -4 1 2 -2 5 -2 -1 -2 -7 -7 -0 -1 6 4 5 3 3 3 -1 -4 -2 3 5 1 2 -1 -1 -0 -3 1 -9 -2 -17
2 -3 1 -2 2 2 2 -3 -3 -3 1 -2 -1 -3 -2 1 4 -0 2 -4 -3 -21 7 -5 2 2 6 -0 7 7 4 2 3 5 -4 11 3 4 0 1 -2 1 -4 -4 -6 -9 -3
3 3 0 1 1 -0 1 -2 -3 -6 -3 -1 -4 -9 2 12 -1 3 0 -4 -16 1 5 6 7 6 4 7 -5 -0 1 -4 1 6 5 -4 -2 3 14 7 12 1 2 7 -0 -5 5
2 1 3 1 1 2 -0 -3 -3 -2 -2 -2 -9 -3 6 10 -3 5 -3 -15 7 10 1 12 6 -1 0 5 2 5 2 -2 2 0 2 -2 5 9 5 3 -1 9 -10 20 0 -1 -2
0 3 1 2 1 1 0 1 -1 -1 -2 -8 -4 -7 19 -2 2 7 -9 2 -1 2 3 5 6 2 3 3 6 2 1 -0 -7 -2 2 -10 3 6 6 3 2 -3 4 -11 -4 -8 -8
1 1 2 3 3 -0 3 -2 -1 0 1 -15 -2 -7 18 0 3 -4 -14 -0 9 1 6 6 5 7 8 -2 2 -1 -5 1 1 2 -0 -0 3 17 -2 7 4 4 3 1 -0 -10 -5
3 1 4 1 2 2 0 -0 1 2 0 -12 -0 -6 12 2 -4 2 3 7 10 1 3 2 6 3 1 -1 1 -3 -5 -2 -1 2 -1 -5 -3 3 8 7 4 1 4 -1 -20 1 -8
3 0 1 0 4 -1 3 -0 3 3 -4 -2 -2 1 -0 -2 -9 6 7 10 2 1 -0 2 -1 2 2 4 -2 -2 -2 -4 -0 -2 -7 -2 -13 -0 7 11 -5 -11 2 -6 -4 -6 7
-0 0 3 -0 2 -0 -1 3 -2 5 -1 -1 -1 -7 -3 -6 7 4 4 3 -4 5 -2 -3 0 -1 6 2 -0 -5 4 -3 -1 -5 -7 -8 -1 3 5 6 -2 0 1 -2 -10 -17 9
1 2 -0 2 1 2 -0 3 3 4 1 -3 -7 -2 3 -6 2 7 1 11 6 6 6 -5 8 11 0 -3 -5 -3 0 -1 -3 -2 -2 -10 -4 -1 0 4 -4 -0 1 -2 -26 17 -33
0 2 -1 0 1 -1 -0 1 2 5 -0 -15 -7 5 5 5 6 0 -0 11 2 1 9 6 11 -5 -7 4 2 -3 -13 -6 8 3 -5 -10 -1 -0 8 8 3 -6 7 10 14 15 -6
0 2 2 1 0 0 1 2 3 3 -13 -2 6 5 2 6 5 1 3 10 16 -5 -2 8 9 -8 12 -4 -13 -4 -5 3 9 -0 -4 -5 2 -3 -4 12 -6 -38 18 -4 12 -6 7
-0 0 1 -0 1 0 1 2 2 -1 -2 3 2 8 -8 4 -5 5 4 3 4 4 3 -2 -4 9 -6 -6 -3 -1 -3 -1 -8 3 -4 5 3 -5 2 8 -22 -4 14 -11 -18 1 -13
1 -0 -1 2 1 1 2 3 1 1 -0 0 4 -2 0 2 2 -5 4 7 5 3 -1 2 9 3 -4 -5 -1 -2 -4 -1 4 1 5 4 -8 -4 -13 -1 -10 -5 1 -1 -10 4 13
-1 -1 2 2 2 2 1 1 1 4 3 -4 5 2 -8 2 6 13 3 1 1 2 -4 8 1 3 -1 -6 -5 -7 -4 -1 0 3 1 -0 -2 -11 3 -10 -18 14 1 10 -1 5 -13
-0 1 1 1 1 2 1 3 3 4 2 0 9 2 -10 -9 10 -4 7 12 6 -3 1 1 14 6 -7 -5 -4 -5 1 5 1 4 2 -3 -7 -4 -2 -14 -7 10 14 10 -2 4 5
-0 -0 0 0 1 2 1 2 4 1 1 2 12 0 4 12 5 4 4 5 6 1 7 14 8 -3 -4 -2 -0 7 6 2 -4 4 1 -2 -6 1 -3 -4 -8 7 0 8 6 -1 22
0 1 0 -0 2 3 3 3 2 4 0 -2 -1 -0 1 -4 9 12 6 -4 0 7 3 3 2 -2 4 -1 3 -1 0 0 2 2 -7 -0 -3 -7 -0 -3 29 7 2 -4 -9 8 12
Height
5737 5738 5738 5738 5738 5737 5738 5738 5739 5739 5739 5739 5741 5741 5742 5743 5742 5743 5744 5746 5749 5751 5751 5753 5757 5760 5761 5764 5768 5764 5766 5768 5770 5772 5773 5774 5776 5775 5775 5775 5775 5775 5775 5773 5772 5768 5766
5726 5726 5726 5726 5726 5726 5725 5725 5726 5726 5726 5727 5728 5729 5729 5730 5731 5730 5732 5733 5736 5738 5742 5743 5745 5748 5751 5754 5755 5757 5759 5760 5761 5763 5766 5768 5768 5769 5771 5771 5771 5771 5770 5769 5767 5766 5764
5711 5711 5713 5712 5712 5713 5712 5712 5712 5713 5713 5713 5714 5714 5716 5717 5717 5718 5719 5720 5724 5728 5729 5731 5734 5736 5741 5746 5745 5747 5749 5750 5753 5755 5758 5760 5760 5763 5768 5766 5766 5765 5765 5764 5762 5761 5760
5699 5698 5698 5697 5698 5697 5698 5698 5698 5698 5700 5700 5700 5701 5701 5703 5705 5707 5707 5707 5710 5714 5717 5719 5722 5725 5729 5732 5733 5737 5738 5744 5745 5748 5749 5751 5752 5756 5760 5760 5761 5760 5760 5759 5756 5756 5757
5685 5684 5684 5683 5683 5683 5683 5683 5685 5686 5686 5688 5688 5688 5688 5690 5691 5695 5696 5696 5698 5701 5704 5707 5711 5714 5718 5721 5723 5726 5729 5732 5735 5739 5740 5742 5744 5749 5753 5755 5755 5756 5755 5753 5751 5751 5751
5672 5672 5670 5669 5669 5669 5670 5671 5671 5672 5672 5674 5675 5674 5676 5676 5678 5680 5684 5684 5686 5690 5693 5695 5699 5704 5706 5709 5711 5714 5718 5720 5724 5727 5731 5732 5736 5740 5745 5750 5752 5749 5747 5747 5748 5747 5746
5657 5657 5656 5656 5656 5656 5656 5657 5658 5659 5662 5663 5663 5662 5663 5663 5666 5667 5670 5672 5676 5678 5682 5685 5688 5693 5693 5697 5700 5703 5706 5709 5713 5717 5720 5725 5726 5730 5741 5742 5741 5741 5741 5744 5744 5740 5741
5643 5642 5641 5641 5642 5642 5643 5644 5645 5646 5648 5650 5652 5652 5652 5653 5653 5655 5657 5659 5663 5665 5672 5674 5677 5682 5685 5685 5690 5692 5695 5699 5703 5708 5710 5713 5715 5727 5730 5732 5734 5735 5736 5741 5739 5736 5736
5626 5625 5625 5625 5625 5626 5627 5629 5631 5633 5633 5634 5637 5639 5640 5642 5642 5644 5645 5647 5650 5652 5658 5668 5667 5670 5676 5676 5681 5684 5684 5689 5694 5698 5701 5704 5711 5713 5719 5724 5725 5729 5732 5734 5732 5729 5731
5607 5607 5606 5607 5607 5609 5611 5612 5614 5617 5618 5619 5622 5624 5626 5630 5633 5632 5635 5636 5640 5643 5646 5656 5658 5659 5664 5668 5671 5674 5673 5681 5684 5691 5694 5693 5701 5706 5710 5716 5718 5721 5728 5725 5724 5723 5725
5588 5587 5588 5589 5590 5592 5593 5595 5598 5600 5601 5603 5606 5609 5612 5616 5619 5623 5626 5627 5631 5635 5638 5645 5649 5652 5656 5662 5664 5667 5669 5672 5678 5684 5688 5690 5695 5698 5701 5708 5708 5717 5717 5716 5716 5717 5719
5568 5569 5569 5572 5573 5575 5576 5578 5580 5582 5584 5585 5588 5592 5597 5602 5607 5612 5615 5618 5623 5627 5627 5633 5639 5642 5647 5652 5656 5659 5663 5665 5669 5674 5679 5682 5687 5691 5695 5698 5701 5705 5709 5708 5711 5711 5713
5549 5549 5552 5553 5556 5557 5559 5561 5563 5564 5566 5567 5570 5575 5581 5586 5593 5599 5603 5607 5612 5614 5621 5626 5630 5635 5639 5644 5647 5651 5656 5658 5661 5666 5670 5676 5680 5685 5689 5691 5695 5697 5703 5703 5703 5703 5710
5529 5530 5533 5535 5538 5539 5542 5544 5546 5546 5548 5549 5550 5556 5564 5570 5576 5584 5589 5594 5599 5604 5612 5616 5621 5626 5631 5636 5640 5643 5648 5652 5654 5658 5663 5665 5671 5676 5682 5685 5689 5691 5695 5695 5695 5699 5704
5510 5512 5515 5517 5521 5524 5526 5529 5530 5530 5531 5530 5532 5537 5546 5550 5558 5569 5575 5580 5589 5595 5602 5608 5611 5616 5622 5627 5632 5635 5640 5644 5646 5650 5655 5657 5663 5668 5673 5677 5680 5684 5683 5693 5691 5690 5691
5491 5494 5497 5501 5505 5508 5511 5514 5514 5516 5516 5515 5518 5520 5530 5532 5544 5552 5559 5571 5576 5583 5591 5598 5602 5606 5613 5617 5622 5626 5630 5635 5638 5641 5645 5648 5654 5658 5662 5667 5671 5674 5678 5682 5680 5682 5683
5474 5477 5482 5486 5489 5493 5495 5498 5500 5502 5502 5501 5505 5506 5515 5519 5528 5536 5548 5558 5566 5572 5580 5587 5593 5599 5602 5607 5611 5615 5621 5625 5628 5631 5635 5639 5643 5652 5654 5658 5662 5665 5668 5672 5673 5675 5676
5460 5463 5466 5470 5474 5478 5481 5484 5487 5489 5489 5489 5492 5495 5505 5509 5516 5526 5536 5546 5554 5562 5568 5576 5581 5587 5592 5597 5601 5606 5610 5613 5618 5622 5625 5630 5633 5639 5646 5649 5653 5657 5660 5663 5662 5667 5669
5446 5449 5452 5456 5460 5464 5468 5471 5474 5476 5476 5479 5482 5485 5491 5496 5504 5516 5522 5532 5541 5551 5557 5564 5570 5577 5582 5587 5590 5595 5600 5604 5608 5612 5615 5619 5624 5629 5636 5643 5645 5649 5651 5653 5656 5658 5661
5433 5437 5440 5444 5448 5452 5455 5459 5461 5464 5464 5468 5472 5475 5482 5489 5497 5504 5513 5522 5531 5540 5547 5551 5559 5566 5572 5577 5580 5584 5589 5593 5597 5602 5606 5609 5615 5619 5624 5629 5635 5638 5642 5644 5647 5649 5652
5422 5426 5429 5432 5436 5439 5442 5445 5448 5450 5453 5457 5462 5469 5477 5481 5491 5499 5505 5514 5521 5530 5537 5542 5549 5554 5559 5566 5570 5574 5576 5582 5588 5593 5596 5599 5604 5607 5611 5615 5620 5626 5631 5636 5639 5644 5642
5413 5416 5419 5422 5424 5426 5428 5431 5434 5439 5442 5447 5455 5462 5467 5475 5481 5488 5495 5504 5511 5519 5527 5533 5538 5543 5549 5556 5558 5562 5568 5574 5579 5582 5585 5591 5594 5595 5599 5601 5605 5609 5620 5625 5629 5631 5631
5404 5407 5409 5411 5413 5414 5416 5419 5424 5428 5433 5439 5449 5454 5457 5466 5472 5477 5486 5496 5504 5508 5518 5524 5529 5535 5540 5540 5548 5554 5560 5565 5570 5572 5574 5579 5582 5584 5588 5589 5591 5595 5607 5610 5615 5618 5624
5395 5396 5399 5403 5406 5408 5410 5413 5416 5421 5425 5434 5441 5445 5449 5459 5463 5471 5481 5487 5494 5500 5507 5513 5521 5528 5528 5533 5540 5545 5550 5555 5559 5564 5568 5572 5573 5574 5578 5575 5573 5596 5592 5594 5601 5611 5612
5385 5388 5391 5396 5399 5402 5404 5407 5410 5414 5418 5425 5432 5437 5443 5450 5458 5466 5473 5480 5486 5493 5501 5508 5515 5518 5522 5527 5533 5538 5543 5547 5553 5557 5560 5564 5566 5569 5568 5567 5569 5578 5582 5586 5589 5604 5602
5378 5382 5386 5389 5393 5396 5399 5402 5406 5409 5411 5415 5423 5430 5435 5442 5452 5458 5465 5472 5480 5487 5494 5503 5510 5514 5517 5522 5527 5531 5536 5541 5547 5552 5555 5558 5561 5563 5562 5561 5563 5569 5571 5576 5579 5589 5585
5373 5376 5380 5383 5387 5391 5394 5398 5401 5405 5408 5411 5418 5423 5427 5436 5446 5452 5460 5468 5474 5482 5491 5499 5505 5509 5512 5517 5521 5525 5529 5537 5543 5547 5550 5551 5553 5554 5554 5552 5553 5557 5563 5565 5570 5579 5577
5366 5370 5373 5377 5382 5386 5390 5393 5397 5401 5405 5408 5416 5419 5426 5433 5440 5448 5455 5462 5470 5479 5487 5494 5498 5503 5506 5509 5513 5519 5527 5534 5538 5541 5542 5544 5546 5548 5548 5545 5544 5550 5553 5558 5562 5565 5570
5359 5363 5367 5371 5375 5379 5384 5389 5392 5397 5402 5407 5412 5418 5424 5429 5438 5444 5452 5459 5468 5476 5481 5487 5493 5497 5500 5503 5509 5515 5522 5527 5532 5535 5538 5540 5541 5543 5542 5542 5543 5545 5547 5548 5552 5557 5559